Regional Weather Roundup
Issued by NWS

Home | Current Version | Previous Version | Graphics & Text | Print | Product List | Glossary On
Versions: 1 2 3 4 5 6 7 8 9 10 11 12 13 14 15 16 17 18 19 20 21 22 23 24 25 26 27 28 29 30 31 32 33 34 35 36 37 38 39 40 41 42 43 44 45 46 47 48 49 50
000
ASUS43 KOAX 030202
RWRNE

WEATHER ROUNDUP FOR NEBRASKA
NATIONAL WEATHER SERVICE OMAHA NE
900 PM CDT SUN AUG 02 2015

NOTES: SATELLITE DATA IS BEING USED TO AUGMENT CLOUD COVER ABOVE
       12000 FEET.
       "FAIR" INDICATES FEW OR NO CLOUDS BELOW 12,000 FEET WITH NO
       SIGNIFICANT WEATHER AND/OR OBSTRUCTIONS TO VISIBILITY.

  * THESE STATIONS DO NOT REPORT WEATHER SUCH AS RAIN...SNOW OR FOG.

NEZ001>004-019>022-054>056-030300-
NEBRASKA PANHANDLE

CITY           SKY/WX    TMP DP  RH WIND       PRES   REMARKS
SCOTTSBLUFF    MOCLDY    80  59  48 E5        29.96S
ALLIANCE       MOCLDY    76  58  53 E3        29.97R
CHADRON        CLEAR     80  57  45 NE14      29.94R
KIMBALL        MOCLDY    76  51  41 SE6       30.03R
SIDNEY         MOCLDY    77  53  43 E8        30.01R
$$

NEZ057>060-069>072-079>082-030300-
SOUTHWEST NEBRASKA

CITY           SKY/WX    TMP DP  RH WIND       PRES   REMARKS
NORTH PLATTE   MOCLDY    70  62  76 E8        29.92R
IMPERIAL       MOCLDY    77  53  43 SE10      29.95R
LEXINGTON      MOCLDY    74  58  58 SE7       29.90F
MCCOOK         MOCLDY    77  58  51 SE8       29.92S
$$

NEZ005>010-023>029-035>040-094-030300-
NORTH CENTRAL NEBRASKA

CITY           SKY/WX    TMP DP  RH WIND       PRES   REMARKS
AINSWORTH      CLEAR     74  65  73 E5        29.95R
BROKEN BOW     PTCLDY    71  63  75 CALM      29.91R
ORD            PTCLDY    73  64  73 E5        29.88S
$$

NEZ041-046>049-061>064-073>077-083>087-030300-
SOUTH CENTRAL NEBRASKA

CITY           SKY/WX    TMP DP  RH WIND       PRES   REMARKS
GRAND ISLAND   PTCLDY    71  64  78 E7        29.87R
AURORA         MOCLDY    74  66  76 N8        29.87F
HASTINGS       CLOUDY    74  58  57 NW5       29.87S
HEBRON         CLOUDY    81  71  71 CALM      29.83S
HOLDREGE       CLOUDY    74  55  49 SW3       29.90F
KEARNEY *      MOCLDY    79  54  41 S8        29.89S
YORK           MOCLDY    79  73  83 N5        29.86R
$$

NEZ011>018-030>034-042>045-030300-
NORTHEAST NEBRASKA

CITY           SKY/WX    TMP DP  RH WIND       PRES   REMARKS
NORFOLK        MOCLDY    82  68  62 NE5       29.87R
ALBION         MOCLDY    79  68  67 N8        29.88F
BLAIR          CLOUDY    81  72  74 CALM      29.84R
COLUMBUS *     MOCLDY    77  66  69 CALM      29.86R
FREMONT        PTCLDY    82  64  55 CALM      29.84F
TEKAMAH        CLEAR     78  73  84 N8        29.82R
WAYNE          CLEAR     74  70  86 CALM      29.87R
$$

NEZ050>053-065>068-078-088>093-030300-
SOUTHEAST NEBRASKA

CITY           SKY/WX    TMP DP  RH WIND       PRES   REMARKS
LINCOLN        CLOUDY    85  72  65 NE10      29.82R HX  91
OMAHA EPPLEY   PTCLDY    82  75  79 NW6       29.81R
BEATRICE       CLOUDY    83  75  76 W5        29.83R HX  91
FALLS CITY     CLOUDY    84  74  71 SW9       29.80F HX  91
NEBRASKA CITY  CLOUDY    80  73  78 SW6       29.81S
$$

NEZ044-045-051>053-067-030300-
OMAHA AREA

CITY           SKY/WX    TMP DP  RH WIND       PRES   REMARKS
OMAHA EPPLEY   PTCLDY    82  75  79 NW6       29.81R
BLAIR          CLOUDY    81  72  74 CALM      29.84R
FREMONT        PTCLDY    82  64  55 CALM      29.84F
WAHOO          FAIR      72  61  69 N6        29.81F
$$


USA.gov is the U.S. government's official web portal to all federal, state and local government web resources and services.